Columbia Owens, SC

3:50 PM EST on November 22, 2017 (GMT -0500)
Columbia Owens Downtown

Weather History for KCUB - December, 2013

Change the Weather History Date:

Tuesday, December 10, 2013

  Actual Average Record
Temperature  
Mean Temperature 53 °F 49 °F  
Max Temperature 68 °F 60 °F 80 °F (2007)
Min Temperature 37 °F 39 °F 24 °F (2006)
Degree Days  
Heating Degree Days 12 16  
Month to date heating degree days 96 148  
Since 1 July heating degree days 510 519  
Cooling Degree Days 0 0  
Month to date cooling degree days 6 0  
Year to date cooling degree days 2229 2256  
Growing Degree Days 4 (Base 50)    
Moisture  
Dew Point 49 °F    
Average Humidity 83    
Maximum Humidity 100    
Minimum Humidity 36    
Precipitation  
Precipitation 0.21 in 0.09 in 0.95 in (2008)
Month to date precipitation 1.76 1.06  
Year to date precipitation 48.63 43.26  
Sea Level Pressure  
Sea Level Pressure 30.06 in    
Wind  
Wind Speed 5 mph (WNW)    
Max Wind Speed 23 mph    
Max Gust Speed 30 mph    
Visibility 6 miles    
Events Fog , Rain    
T = Trace of Precipitation, MM = Missing Value Source: NWS Daily Summary

Daily Weather History Graph

Daily Weather History Graph

Search for Another Location

Airport or City:

Trip Planner

Search our weather history database for the weather conditions in past years. The results will help you decide how hot, cold, wet, or windy it might be!

Date:

Astronomy

Dec. 10, 2013 Rise Set
Actual Time 7:18 AM EST 5:15 PM EST
Civil Twilight 6:51 AM EST 5:42 PM EST
Nautical Twilight 6:19 AM EST 6:14 PM EST
Astronomical Twilight 5:49 AM EST 6:44 PM EST
Moon 1:01 PM EST (12/10) 12:51 AM EST (12/10)
Length of Visible Light 10h 51m
Length of Day
9h 56m
First Quarter, 61% of the Moon is Illuminated
Dec 10
First Quarter
Dec 17
Full
Dec 25
Last Quarter
Jan 1
New
Jan 7
First Quarter

Hourly Weather History & Observations

Time (EST) Temp. Windchill Dew Point Humidity Pressure Visibility Wind Dir Wind Speed Gust Speed Precip Events Conditions
12:08 AM 53.1 °F - 53.1 °F 100% 30.05 in 1.0 mi Calm Calm - 0.08 in Rain Heavy Rain
12:16 AM 53.1 °F - 53.1 °F 100% 30.05 in 1.8 mi Calm Calm - 0.09 in Rain Light Rain
12:28 AM 53.1 °F - 52.0 °F 96% 30.04 in 2.5 mi Calm Calm - 0.10 in Rain Light Rain
12:39 AM 53.1 °F - 53.1 °F 100% 30.03 in 3.0 mi Calm Calm - 0.11 in Rain Light Rain
12:53 AM 54.0 °F - 53.1 °F 97% 30.03 in 4.0 mi Calm Calm - 0.11 in   Overcast
1:53 AM 54.0 °F - 53.1 °F 97% 30.01 in 4.0 mi Calm Calm - N/A   Overcast
2:04 AM 54.0 °F - 53.1 °F 97% 30.01 in 1.8 mi Calm Calm - N/A   Overcast
2:12 AM 54.0 °F - 53.1 °F 97% 30.00 in 0.8 mi Calm Calm - N/A   Overcast
2:53 AM 54.0 °F - 54.0 °F 100% 30.00 in 0.5 mi Calm Calm - N/A Fog Fog
3:53 AM 53.1 °F - 53.1 °F 100% 29.99 in 0.5 mi Calm Calm - N/A Fog Fog
4:53 AM 53.1 °F - 53.1 °F 100% 29.98 in 1.0 mi Calm Calm - 0.01 in Rain Light Rain
5:07 AM 54.0 °F - 53.1 °F 97% 29.97 in 1.5 mi Calm Calm - 0.00 in   Overcast
5:19 AM 54.0 °F - 53.1 °F 97% 29.97 in 3.0 mi Calm Calm - 0.00 in Rain Light Rain
5:38 AM 54.0 °F - 53.1 °F 97% 29.96 in 4.0 mi Calm Calm - 0.01 in Rain Light Rain
5:53 AM 54.0 °F - 54.0 °F 100% 29.96 in 4.0 mi Calm Calm - 0.02 in   Overcast
6:26 AM 55.0 °F - 55.0 °F 100% 29.94 in 7.0 mi Calm Calm - 0.01 in   Overcast
6:53 AM 55.9 °F - 55.0 °F 97% 29.95 in 6.0 mi Calm Calm - 0.01 in   Overcast
7:49 AM 57.2 °F - 55.4 °F 94% 29.95 in 7.0 mi Calm Calm - N/A   Overcast
7:53 AM 57.0 °F - 57.0 °F 100% 29.94 in 6.0 mi Calm Calm - N/A   Overcast
8:53 AM 66.9 °F - 64.9 °F 93% 29.95 in 4.0 mi SW 5.8 mph - 0.01 in Rain Light Rain
9:25 AM 63.0 °F - 60.1 °F 90% 29.98 in 2.5 mi WNW 13.8 mph 26.5 mph 0.03 in Rain Rain
9:28 AM 62.1 °F - 59.0 °F 90% 29.99 in 1.8 mi WNW 11.5 mph 26.5 mph 0.04 in Rain Heavy Rain
9:34 AM 62.1 °F - 59.0 °F 90% 29.99 in 3.0 mi West 17.3 mph 25.3 mph 0.04 in Rain Light Rain
9:53 AM 63.0 °F - 59.0 °F 87% 29.99 in 10.0 mi West 11.5 mph 21.9 mph 0.04 in   Overcast
10:53 AM 60.1 °F - 55.9 °F 86% 30.02 in 5.0 mi West 13.8 mph - 0.01 in Rain Light Rain
11:53 AM 61.0 °F - 55.9 °F 83% 30.01 in 10.0 mi WSW 8.1 mph - 0.00 in   Overcast
12:53 PM 64.9 °F - 51.1 °F 61% 30.01 in 10.0 mi West 21.9 mph 28.8 mph N/A   Clear
1:53 PM 63.0 °F - 50.0 °F 63% 30.04 in 10.0 mi WNW 13.8 mph 24.2 mph N/A   Mostly Cloudy
2:53 PM 64.0 °F - 48.9 °F 58% 30.06 in 10.0 mi WNW 12.7 mph 20.7 mph N/A   Scattered Clouds
3:53 PM 57.9 °F - 46.9 °F 67% 30.12 in 10.0 mi North 9.2 mph - N/A   Scattered Clouds
4:53 PM 57.0 °F - 43.0 °F 59% 30.16 in 10.0 mi North - - N/A   Mostly Cloudy
5:53 PM 53.1 °F - 28.0 °F 38% 30.20 in 10.0 mi Variable 4.6 mph - N/A   Clear
6:53 PM 50.0 °F - 24.1 °F 36% 30.23 in 10.0 mi North 3.5 mph - N/A   Clear
7:53 PM 48.0 °F - 25.0 °F 41% 30.27 in 10.0 mi North 3.5 mph - N/A   Clear
8:53 PM 43.0 °F - 28.9 °F 58% 30.30 in 10.0 mi Calm Calm - N/A   Clear
9:53 PM 43.0 °F - 27.0 °F 53% 30.32 in 10.0 mi Calm Calm - N/A   Clear
10:53 PM 41.0 °F 39.0 °F 27.0 °F 57% 30.34 in 10.0 mi NW 3.5 mph - N/A   Clear
11:53 PM 37.0 °F - 30.9 °F 79% 30.36 in 10.0 mi Calm Calm - N/A   Clear